Hourly Data Report for October 08, 2013

All times are specified in Local Standard Time (LST). Add 1 hour to adjust for Daylight Saving Time where and when it is observed.

GRISE FIORD CLIMATE
NUNAVUT

76°25'22.040" N
82°54'08.020" W
44.50 m
2402351
71971
NGC

Download Data

Hourly Data (October 2013)
Hourly Data Report for October 8, 2013
Temp Definition
°C
Dew Point Temp Definition
°C
Rel Hum Definition
%
Wind Dir Definition
10's deg

Wind Spd Definition
km/h
Visibility Definition
km
Stn Press Definition
kPa
Hmdx Definition


Wind Chill Definition


Weather Definition


TIME
00:00 -11.3 -17.3 61 4 7   101.95   -16 LegendNANA
01:00 -11.3 -17.0 63 5 7   101.98   -16 LegendNANA
02:00 -11.5 -16.8 65 7 4   102.01   -14 LegendNANA
03:00 -11.5 -17.2 63 4 11   102.01   -17 LegendNANA
04:00 -10.9 -16.5 63 5 7   102.04   -15 LegendNANA
05:00 -10.8 -16.1 65 4 6   102.08   -14 LegendNANA
06:00 -11.0 -15.6 69 9 6   102.12   -15 LegendNANA
07:00 -11.8 -16.5 68 4 13   102.14   -18 LegendNANA
08:00 -11.8 -16.8 66 4 15   102.16   -19 LegendNANA
09:00 -11.4 -15.9 69 5 15   102.17   -18 LegendNANA
10:00 -11.4 -16.4 66 4 11   102.17   -17 LegendNANA
11:00 -11.0 -16.1 66 4 6   102.18   -15 LegendNANA
12:00 -10.7 -16.3 63 5 11   102.14   -16 LegendNANA
13:00 -10.3 -15.7 65 4 6   102.13   -14 LegendNANA
14:00 -10.4 -16.0 63 4 7   102.13   -14 LegendNANA
15:00 -10.0 -15.8 63 4 6   102.11   -14 LegendNANA
16:00 -10.7 -15.6 67 4 6   102.09   -14 LegendNANA
17:00 -11.0 -15.5 69 4 9   102.06   -16 LegendNANA
18:00 -11.4 -15.8 70 5 11   102.02   -17 LegendNANA
19:00 -11.0 -15.4 70 5 13   101.96   -17 LegendNANA
20:00 -12.1 -15.8 74 5 6   101.91   -16 LegendNANA
21:00 -12.2 -16.3 71 6 13   101.84   -19 LegendNANA
22:00 -11.4 -15.8 70 4 17   101.74   -19 LegendNANA
23:00 -11.6 -16.2 69 6 20   101.64   -20 LegendNANA

Notes on Data Quality.

Legend

  • E = Estimated
  • M = Missing
  • NA = Not Available
  • ‡ = Partner data that is not subject to review by the National Climate Archives
Date modified: